Location: Antin
(43.3330°N, 0.2804°E)
Time: 22:50:59
(UTC+00:00)

H-2A R/B - Pass Details

Date: 16 October 2021
Orbit: 528 x 650 km, 98.3° (Epoch: 04 December)

Event Time Altitude Azimuth Distance (km) Brightness Sun altitude
Rises 18:49:56 0° 174° (S) 2,939 5.9 -18.2°
Reaches altitude 10° 18:52:11 10° 178° (S) 2,023 5.1 -18.6°
Maximum altitude 18:56:33 60° 258° (WSW) 720 3.1 -19.4°
Drops below altitude 10° 19:00:49 10° 339° (NNW) 1,979 5.5 -20.2°
Sets 19:03:00 0° 343° (NNW) 2,868 6.3 -20.6°
